When you browse on this site, cookies collect data to enhance your experience and personalize the content and advertising you see.
Visit our Privacy Policy to learn more. By continuing to use the site, you agree to this use of cookies and data.
  • In France
  • List of Countries
  • For 7 days
  • Water Temperature
  • Satellite Maps
  • Weather Map
  • Weather Widgets
  • user-avatar
    Login

    Hourly Weather Arauca

    Today, 17 November, Saturday

    Time Temperature Precipitation Wind Pressure Humidity
    00:00 +25°C° 0.1 mm 1 mps 746 mmHg 95%
    01:00 +25°C° 0 mm 1 mps 746 mmHg 96%
    02:00 +25°C° 0.7 mm 1 mps 746 mmHg 96%
    03:00 +24°C° 0.7 mm 1 mps 746 mmHg 96%
    04:00 +24°C° 0.7 mm 1 mps 746 mmHg 96%
    05:00 +24°C° 1 mm 2 mps 747 mmHg 96%
    06:00 +24°C° 1 mm 2 mps 748 mmHg 95%
    07:00 +24°C° 1 mm 2 mps 748 mmHg 95%
    08:00 +26°C° 0.5 mm 2 mps 748 mmHg 91%
    09:00 +27°C° 0.5 mm 2 mps 749 mmHg 87%
    10:00 +28°C° 0.5 mm 3 mps 749 mmHg 83%
    11:00 +29°C° 0.7 mm 2 mps 748 mmHg 80%
    12:00 +30°C° 0.7 mm 2 mps 747 mmHg 78%
    13:00 +30°C° 0.7 mm 2 mps 746 mmHg 76%
    14:00 +30°C° 1.3 mm 2 mps 746 mmHg 79%
    15:00 +30°C° 1.3 mm 1 mps 745 mmHg 82%
    16:00 +29°C° 1.3 mm 1 mps 745 mmHg 85%
    17:00 +28°C° 0.3 mm 1 mps 745 mmHg 88%
    18:00 +27°C° 0.3 mm 1 mps 746 mmHg 92%
    19:00 +26°C° 0.3 mm 1 mps 746 mmHg 95%
    20:00 +26°C° 0.1 mm 1 mps 747 mmHg 96%
    21:00 +25°C° 0.1 mm 1 mps 747 mmHg 96%
    22:00 +25°C° 0.1 mm 1 mps 748 mmHg 97%
    23:00 +25°C° 0.5 mm 1 mps 747 mmHg 97%

    Tomorrow, 18 November, Sunday

    Time Temperature Precipitation Wind Pressure Humidity
    00:00 +25°C° 0.5 mm 1 mps 747 mmHg 97%
    01:00 +25°C° 0.5 mm 1 mps 747 mmHg 97%
    02:00 +24°C° 0.2 mm 1 mps 747 mmHg 97%
    03:00 +24°C° 0.2 mm 1 mps 746 mmHg 97%
    04:00 +24°C° 0.2 mm 1 mps 746 mmHg 97%
    05:00 +24°C° 0.7 mm 1 mps 747 mmHg 96%
    06:00 +24°C° 0.7 mm 2 mps 747 mmHg 96%
    07:00 +25°C° 0.7 mm 2 mps 748 mmHg 95%
    08:00 +26°C° 0.2 mm 2 mps 748 mmHg 91%
    09:00 +27°C° 0.2 mm 2 mps 748 mmHg 88%
    10:00 +28°C° 0.2 mm 2 mps 749 mmHg 84%
    11:00 +28°C° 0.7 mm 2 mps 748 mmHg 84%
    12:00 +29°C° 0.7 mm 3 mps 747 mmHg 83%
    13:00 +29°C° 0.7 mm 3 mps 746 mmHg 82%
    14:00 +29°C° 0.2 mm 2 mps 746 mmHg 81%
    15:00 +29°C° 0.2 mm 2 mps 746 mmHg 79%
    16:00 +29°C° 0.2 mm 2 mps 745 mmHg 78%
    17:00 +28°C° 0 mm 2 mps 745 mmHg 82%
    18:00 +27°C° 0 mm 1 mps 746 mmHg 86%
    19:00 +26°C° 0 mm 1 mps 746 mmHg 91%
    20:00 +26°C° 0 mm 1 mps 747 mmHg 92%
    21:00 +25°C° 0 mm 1 mps 747 mmHg 92%
    22:00 +25°C° 0 mm 1 mps 748 mmHg 93%
    23:00 +25°C° 0.1 mm 1 mps 747 mmHg 94%

    Day after tomorrow, 19 November, Monday

    Time Temperature Precipitation Wind Pressure Humidity
    00:00 +24°C° 0.1 mm 1 mps 747 mmHg 94%
    01:00 +24°C° 0.1 mm 1 mps 747 mmHg 95%
    02:00 +24°C° 0.6 mm 1 mps 746 mmHg 95%
    03:00 +24°C° 0.6 mm 1 mps 746 mmHg 96%
    04:00 +23°C° 0.6 mm 1 mps 746 mmHg 97%
    05:00 +24°C° 0.2 mm 1 mps 747 mmHg 95%
    06:00 +24°C° 0.2 mm 1 mps 747 mmHg 94%
    07:00 +25°C° 0.2 mm 1 mps 748 mmHg 92%
    08:00 +27°C° 0 mm 2 mps 748 mmHg 84%
    09:00 +29°C° 0 mm 2 mps 748 mmHg 76%
    10:00 +31°C° 0 mm 3 mps 749 mmHg 68%
    11:00 +31°C° 0.5 mm 2 mps 748 mmHg 67%
    12:00 +32°C° 0.5 mm 2 mps 747 mmHg 66%
    13:00 +32°C° 0.5 mm 2 mps 746 mmHg 65%
    14:00 +32°C° 0.5 mm 2 mps 745 mmHg 70%
    15:00 +31°C° 0.5 mm 2 mps 744 mmHg 74%
    16:00 +31°C° 0.5 mm 2 mps 744 mmHg 79%
    17:00 +29°C° 0.1 mm 1 mps 744 mmHg 83%
    18:00 +28°C° 0.1 mm 1 mps 745 mmHg 88%
    19:00 +27°C° 0.1 mm 1 mps 746 mmHg 93%
    20:00 +26°C° 0.1 mm 1 mps 746 mmHg 94%
    21:00 +26°C° 0.1 mm 1 mps 747 mmHg 94%
    22:00 +26°C° 0.1 mm 1 mps 747 mmHg 95%
    23:00 +26°C° 1.2 mm 1 mps 747 mmHg 96%

    20 November, Tuesday

    Time Temperature Precipitation Wind Pressure Humidity
    00:00 +25°C° 1.2 mm 1 mps 746 mmHg 96%
    01:00 +25°C° 1.2 mm 1 mps 746 mmHg 97%
    02:00 +25°C° 2 mm 1 mps 746 mmHg 97%
    03:00 +24°C° 2 mm 1 mps 746 mmHg 96%
    04:00 +24°C° 2 mm 1 mps 746 mmHg 96%
    05:00 +24°C° 1.2 mm 2 mps 747 mmHg 96%
    06:00 +25°C° 1.2 mm 2 mps 747 mmHg 95%
    07:00 +25°C° 1.2 mm 2 mps 748 mmHg 94%
    08:00 +27°C° 0.3 mm 2 mps 748 mmHg 88%
    09:00 +28°C° 0.3 mm 2 mps 748 mmHg 82%
    10:00 +30°C° 0.3 mm 3 mps 749 mmHg 76%
    11:00 +30°C° 0.9 mm 2 mps 748 mmHg 78%
    12:00 +30°C° 0.9 mm 2 mps 747 mmHg 80%
    13:00 +31°C° 0.9 mm 2 mps 746 mmHg 82%
    14:00 +30°C° 0.9 mm 2 mps 745 mmHg 83%
    15:00 +30°C° 0.9 mm 2 mps 745 mmHg 84%
    16:00 +30°C° 0.9 mm 1 mps 744 mmHg 86%
    17:00 +29°C° 0.2 mm 1 mps 745 mmHg 88%
    18:00 +28°C° 0.2 mm 1 mps 746 mmHg 91%
    19:00 +27°C° 0.2 mm 1 mps 746 mmHg 94%
    20:00 +26°C° 0.1 mm 1 mps 747 mmHg 95%
    21:00 +26°C° 0.1 mm 1 mps 747 mmHg 95%
    22:00 +26°C° 0.1 mm 1 mps 747 mmHg 96%
    23:00 +26°C° 0.1 mm 1 mps 747 mmHg 96%

    21 November, Wednesday

    Time Temperature Precipitation Wind Pressure Humidity
    00:00 +25°C° 0.1 mm 1 mps 747 mmHg 97%
    01:00 +25°C° 0.1 mm 1 mps 746 mmHg 97%
    02:00 +25°C° 0.3 mm 1 mps 746 mmHg 96%
    03:00 +25°C° 0.3 mm 1 mps 746 mmHg 95%
    04:00 +24°C° 0.3 mm 1 mps 746 mmHg 94%
    05:00 +25°C° 0 mm 1 mps 747 mmHg 92%
    06:00 +25°C° 0 mm 1 mps 748 mmHg 90%
    07:00 +26°C° 0 mm 1 mps 749 mmHg 88%
    08:00 +27°C° 0.1 mm 1 mps 749 mmHg 81%
    09:00 +29°C° 0.1 mm 2 mps 749 mmHg 74%
    10:00 +30°C° 0.1 mm 2 mps 749 mmHg 68%
    11:00 +31°C° 0.2 mm 2 mps 748 mmHg 66%
    12:00 +32°C° 0.2 mm 2 mps 747 mmHg 65%
    13:00 +34°C° 0.2 mm 2 mps 746 mmHg 63%
    14:00 +32°C° 0.1 mm 2 mps 745 mmHg 66%
    15:00 +32°C° 0.1 mm 2 mps 745 mmHg 68%
    16:00 +32°C° 0.1 mm 1 mps 744 mmHg 71%
    17:00 +30°C° 0 mm 1 mps 745 mmHg 76%
    18:00 +29°C° 0 mm 1 mps 746 mmHg 81%
    19:00 +27°C° 0 mm 1 mps 746 mmHg 86%
    20:00 +27°C° 0.2 mm 1 mps 747 mmHg 88%
    21:00 +26°C° 0.2 mm 1 mps 747 mmHg 91%
    22:00 +26°C° 0.2 mm 1 mps 747 mmHg 93%
    23:00 +26°C° 0.2 mm 1 mps 747 mmHg 94%

    22 November, Thursday

    Time Temperature Precipitation Wind Pressure Humidity
    00:00 +25°C° 0.2 mm 1 mps 746 mmHg 95%
    01:00 +25°C° 0.2 mm 1 mps 746 mmHg 96%
    02:00 +25°C° 0.1 mm 1 mps 746 mmHg 96%
    03:00 +25°C° 0.1 mm 1 mps 746 mmHg 96%
    04:00 +25°C° 0.1 mm 1 mps 746 mmHg 96%
    05:00 +25°C° 0 mm 1 mps 747 mmHg 95%
    06:00 +26°C° 0 mm 1 mps 747 mmHg 94%
    07:00 +26°C° 0 mm 1 mps 748 mmHg 92%
    08:00 +27°C° 0.2 mm 2 mps 748 mmHg 87%
    09:00 +29°C° 0.2 mm 2 mps 748 mmHg 81%
    10:00 +30°C° 0.2 mm 2 mps 748 mmHg 75%
    11:00 +31°C° 0.4 mm 2 mps 747 mmHg 73%
    12:00 +31°C° 0.4 mm 2 mps 746 mmHg 70%
    13:00 +32°C° 0.4 mm 2 mps 745 mmHg 68%
    14:00 +31°C° 0 mm 2 mps 745 mmHg 70%
    15:00 +31°C° 0 mm 2 mps 744 mmHg 72%
    16:00 +31°C° 0 mm 1 mps 744 mmHg 74%
    17:00 +30°C° 0 mm 1 mps 744 mmHg 78%
    18:00 +28°C° 0 mm 1 mps 745 mmHg 82%
    19:00 +27°C° 0 mm 1 mps 745 mmHg 86%
    20:00 +27°C° 0 mm 1 mps 746 mmHg 87%
    21:00 +26°C° 0 mm 1 mps 746 mmHg 89%
    22:00 +26°C° 0 mm 1 mps 746 mmHg 90%
    23:00 +26°C° 0.2 mm 1 mps 746 mmHg 91%
    Show more